Location: Rocktram
(38.2574°N, 122.2805°W)
Time: 20:32:02
(UTC+00:00)

STARLINK-1096 - Pass Details

Date: 30 March 2020
Orbit: 548 x 551 km, 53.0° (Epoch: 30 May)

Event Time Altitude Azimuth Distance (km) Brightness Sun altitude
Rises 04:11:23 0° 313° (NW) 2,724 8.4 -20.0°
Reaches altitude 10° 04:13:38 10° 316° (NW) 1,827 7.2 -20.5°
Maximum altitude 04:17:46 66° 39° (NE) 601 3.6 -21.2°
Enters shadow 04:18:04 63° 68° (ENE) 614 3.6 -21.3°
